#timestamp,LO_Frequency,Hit,StdDev 
1501365615.6,286047000.6,N,1.1
1501365635.5,286047000.6,N,1.1
1501365655.3,286047000.7,N,1.1
1501365675.1,286046998.7,N,1.2
1501365695.9,286047000.5,N,1.2
1501365715.7,286047000.0,N,1.2
1501365735.6,286047000.5,N,1.2
1501365755.4,286046999.9,N,1.2
1501365775.2,286047002.3,N,1.2
1501365795.1,286047001.5,N,1.2
1501365796.0,286047001.5,N,1.1
1501365815.8,286047002.6,N,1.1
1501365835.7,286047004.4,P,1.6
1501365855.5,286047002.8,N,1.3
1501365875.3,286047000.0,N,1.7
1501365895.2,286047002.8,N,1.5
1501365915.0,286047002.4,N,1.4
1501365915.9,286047002.4,N,1.3
1501365935.8,286047002.8,N,1.2
1501365955.6,286047002.4,N,1.1
1501365975.4,286047002.3,N,1.1
1501365995.3,286047000.0,N,1.2
1501366015.1,286046999.9,N,1.3
1501366035.9,286047002.6,N,1.3
1501366055.7,286047001.9,N,1.2
1501366075.5,286046999.7,N,1.3
1501366095.4,286046999.8,N,1.4
1501366115.2,286047002.6,N,1.4
1501366135.0,286047000.1,N,1.4
1501366135.9,286047000.1,N,1.4
1501366155.8,286046999.8,N,1.4
1501366175.6,286046999.8,N,1.4
1501366195.5,286047002.3,N,1.4
1501366215.3,286046999.8,N,1.4
1501366235.1,286047002.4,N,1.4
1501366255.9,286047002.1,N,1.4
1501366275.7,286047002.7,N,1.4
1501366295.6,286047002.2,N,1.3
1501366315.4,286047002.7,N,1.3
1501366335.2,286047000.2,N,1.3
1501366355.1,286047002.3,N,1.3
1501366356.0,286047002.3,N,1.3
1501366375.8,286047002.2,N,1.2
1501366395.7,286047002.4,N,1.2
1501366415.5,286046999.8,N,1.2
1501366435.3,286047002.3,N,1.2
1501366455.2,286047002.7,N,1.2
1501366475.0,286046999.8,N,1.2
1501366475.9,286046999.8,N,1.2
1501366495.8,286047002.3,N,1.2
1501366515.6,286047002.8,N,1.3
1501366535.4,286047001.7,N,1.2
1501366555.3,286047001.9,N,1.2
1501366575.1,286047001.4,N,1.2
1501366595.9,286047003.6,N,1.3
1501366615.7,286047001.6,N,1.2
1501366635.5,286047001.4,N,1.2
1501366655.4,286047003.7,P,1.1
1501366675.2,286047004.0,P,1.1
1501366695.1,286047002.1,N,1.0
1501366696.0,286047002.1,N,1.0
1501366715.8,286047001.8,N,0.9
1501366735.6,286047001.6,N,0.9
1501366755.5,286047001.8,N,0.9
1501366775.3,286047002.6,N,0.9
1501366795.2,286047002.6,P,0.1
1501366815.9,286047000.9,P,0.8
1501366835.7,286047000.6,N,0.9
1501366855.6,286046998.1,N,1.6
1501366875.4,286047000.7,N,1.5
1501366895.3,286046998.2,N,1.7
1501366915.1,286047000.5,N,1.5
1501366916.0,286047000.5,N,1.5
1501366935.8,286046999.9,N,1.4
1501366955.7,286046999.8,N,1.3
1501366975.5,286047002.8,N,1.4
1501366995.4,286047000.1,N,1.4
1501367015.2,286047000.7,N,1.3
1501367035.0,286047000.6,N,1.3
1501367035.9,286047000.6,N,1.3
1501367055.8,286046999.8,N,1.2
1501367075.6,286047000.8,N,1.2
1501367095.4,286046999.3,N,1.2
1501367115.3,286046998.8,N,1.2
1501367135.1,286046998.4,N,1.3
1501367155.9,286047001.2,N,1.3
1501367175.7,286047000.6,N,1.2
1501367195.6,286047002.4,N,1.3
1501367215.4,286047002.8,N,1.3
1501367235.2,286047002.6,N,1.4
1501367255.1,286046999.7,N,1.3
1501367256.0,286046999.7,N,1.3
1501367275.8,286047000.2,N,1.3
1501367295.6,286046999.7,N,1.3
1501367315.5,286047002.3,N,1.3
1501367335.3,286047002.1,N,1.3
1501367355.2,286047001.9,N,1.3
1501367375.0,286047001.7,N,1.3
1501367375.9,286047001.7,N,1.2
1501367395.7,286047000.2,N,1.2
1501367415.6,286047000.3,N,1.2
1501367435.4,286046999.7,N,1.2
1501367455.3,286046999.8,N,1.2
1501367475.1,286047000.2,N,1.2
1501367495.8,286047001.7,N,1.2
1501367515.7,286047002.5,N,1.2
1501367535.5,286047002.0,N,1.2
1501367555.4,286047001.4,N,1.2
1501367575.2,286047001.5,N,1.2
1501367595.1,286047004.1,P,1.6
1501367596.0,286047004.1,N,1.5
1501367615.8,286047001.5,N,1.5
1501367635.6,286046999.8,N,1.7
1501367655.5,286047000.0,N,1.8
1501367675.3,286047000.5,N,1.7
1501367695.2,286047000.6,N,1.6
1501367715.9,286047000.5,N,1.6
1501367735.7,286047002.8,N,1.5
1501367755.6,286047000.8,N,1.5
1501367775.4,286047000.5,N,1.4
1501367795.2,286047001.0,N,1.4
1501367815.1,286046998.1,N,1.6
1501367816.0,286046998.1,N,1.7
1501367835.8,286047000.4,N,1.6
1501367855.7,286047000.6,N,1.6
1501367875.5,286047001.0,N,1.5
1501367895.3,286047000.4,N,1.5
1501367915.2,286047000.0,N,1.5
1501367935.0,286047000.5,N,1.4
1501367935.9,286047000.5,N,1.4
1501367955.8,286047002.2,N,1.4
1501367975.6,286047002.3,N,1.4
1501367995.4,286047002.5,N,1.4
1501368015.3,286047002.2,N,1.4
1501368035.1,286047001.9,N,1.4
1501368055.9,286047001.5,N,1.4
1501368075.7,286047001.6,N,1.4
1501368095.5,286047000.1,N,1.3
1501368115.4,286047002.4,N,1.4
1501368135.2,286046999.7,N,1.3
1501368155.1,286047000.0,N,1.1
1501368156.0,286047000.0,N,1.1
1501368175.8,286046999.8,N,1.1
1501368195.6,286047002.2,N,1.2
1501368215.5,286047002.3,N,1.2
1501368235.3,286047001.9,N,1.2
1501368255.2,286047002.4,N,1.2
1501368275.0,286047000.9,N,1.2
1501368275.9,286047000.9,N,1.2
1501368295.8,286047000.1,N,1.2
1501368315.6,286047000.9,N,1.2
1501368335.4,286047002.7,N,1.1
1501368355.3,286047002.2,N,1.0
1501368375.1,286047001.8,N,1.0
1501368395.8,286047002.6,N,1.0
1501368415.7,286047002.0,N,1.0
1501368435.5,286047002.7,N,1.0
1501368455.4,286047002.1,N,1.0
1501368475.2,286047002.0,N,1.0
1501368495.0,286047002.7,N,1.0
1501368495.9,286047002.7,N,1.0
1501368515.8,286047002.4,N,1.0
1501368535.6,286047001.6,N,1.0
1501368555.5,286047004.3,P,1.3
1501368575.3,286047002.7,N,1.1
1501368595.1,286046999.7,N,1.7
1501368615.9,286046999.7,N,1.8
1501368635.7,286047001.6,N,1.6
1501368655.6,286047001.9,N,1.5
1501368675.4,286047002.5,N,1.4
1501368695.2,286047002.6,N,1.4
1501368715.1,286047004.4,P,1.3
1501368716.0,286047004.4,P,1.2
1501368735.8,286047001.7,N,1.3
1501368755.7,286047002.1,N,1.2
1501368775.5,286047002.2,N,1.2
1501368795.3,286047002.8,N,1.1
1501368815.2,286047000.4,N,1.3
1501368835.0,286047000.5,N,1.4
1501368835.9,286047000.5,N,1.4
1501368855.8,286046998.8,N,1.6
1501368875.6,286046998.4,N,1.8
1501368895.4,286046999.3,N,1.8
1501368915.3,286046998.4,P,1.5
1501368935.1,286046996.7,N,1.9
1501368955.9,286046997.9,N,1.7
1501368975.7,286046995.0,N,2.1
1501368995.5,286046995.7,N,2.1
1501369015.4,286046996.0,N,2.0
1501369035.2,286046995.7,N,1.9
1501369055.1,286046993.9,P,1.6
1501369056.0,286046993.9,P,1.5
1501369075.8,286046997.9,N,1.8
1501369095.6,286046996.7,N,1.7
1501369115.5,286046996.9,N,1.6
1501369135.3,286046997.5,N,1.5
1501369155.2,286046997.9,N,1.5
1501369175.0,286046997.2,N,1.5
1501369175.9,286046997.2,N,1.4
1501369195.7,286046997.8,N,1.4
